Weather History for Brisbane, QU

Change the Weather History Date:

Saturday, May 25, 2013

  Actual Average Record
Temperature  
Mean Temperature 64 °F -  
Max Temperature 73 °F 71 °F 79 °F (2014)
Min Temperature 55 °F 53 °F 41 °F (2006)
Degree Days  
Heating Degree Days 1    
Growing Degree Days 14 (Base 50)    
Moisture  
Dew Point 48 °F    
Average Humidity 55    
Maximum Humidity 72    
Minimum Humidity 32    
Precipitation  
Precipitation 0.00 in 0.10 in - ()
Sea Level Pressure  
Sea Level Pressure 30.04 in    
Wind  
Wind Speed 13 mph ()    
Max Wind Speed 24 mph    
Max Gust Speed 36 mph    
Visibility 8.7 miles    
Events      
Averages and records for this station are not official NWS values.
T = Trace of Precipitation, MM = Missing Value Source: Averaged Metar Reports

Daily Weather History Graph

Daily Weather History Graph

Search for Another Location

Airport:

Trip Planner

Search our weather history database for the weather conditions in past years. The results will help you decide how hot, cold, wet, or windy it might be!

Date:

Astronomy

May. 25, 2013 Rise Set
Actual Time 6:25 AM AEST 5:02 PM AEST
Civil Twilight 6:00 AM AEST 5:27 PM AEST
Nautical Twilight 5:32 AM AEST 5:56 PM AEST
Astronomical Twilight 5:04 AM AEST 6:24 PM AEST
Moon 5:11 PM AEST (5/25) 6:05 AM AEST (5/25)
Length of Visible Light 11h 26m
Length of Day
10h 36m
Full, 100% of the Moon is Illuminated
May 25
Full
May 25
Full
Jun 1
Last Quarter
Jun 9
New
Jun 17
First Quarter

Hourly Weather History & Observations

Time (AEST) Temp. Dew Point Humidity Pressure Visibility Wind Dir Wind Speed Gust Speed Precip Events Conditions
12:00 AM 63 °F 48 °F 48% 29.90 in 16 mi SSW 20.7 mph - -   Partly Cloudy
12:00 AM 62.6 °F 48.2 °F 59% 29.89 in 6.2 mi SSW 20.7 mph - N/A   Partly Cloudy
12:27 AM 62.6 °F 48.2 °F 59% 29.89 in 6.2 mi SSW 23.0 mph 34.5 mph N/A   Partly Cloudy
12:30 AM 62.6 °F 48.2 °F 59% 29.89 in 6.2 mi SSW 24.2 mph 35.7 mph N/A   Partly Cloudy
1:00 AM 62 °F 49 °F 52% 29.91 in - SSW 20.7 mph - -  
1:00 AM 60.8 °F 48.2 °F 63% 29.89 in - SSW 20.7 mph - N/A   Clear
1:30 AM 62.6 °F 48.2 °F 59% 29.92 in 6.2 mi SSW 18.4 mph - N/A   Scattered Clouds
2:00 AM 62.6 °F 48.2 °F 59% 29.92 in 6.2 mi SSW 17.3 mph - N/A   Partly Cloudy
2:30 AM 60.8 °F 48.2 °F 63% 29.92 in 6.2 mi SSW 15.0 mph - N/A   Scattered Clouds
3:00 AM 61 °F 47 °F 49% 29.92 in 16 mi SSW 12.7 mph - -   Partly Cloudy
3:00 AM 60.8 °F 46.4 °F 59% 29.92 in 6.2 mi SSW 12.7 mph - N/A   Partly Cloudy
3:30 AM 60.8 °F 46.4 °F 59% 29.92 in 6.2 mi SSW 13.8 mph - N/A   Partly Cloudy
4:00 AM 59 °F 48 °F 57% 29.92 in - SSW 12.7 mph - -  
4:00 AM 59.0 °F 48.2 °F 67% 29.92 in 6.2 mi SSW 12.7 mph - N/A   Partly Cloudy
4:30 AM 59.0 °F 48.2 °F 67% 29.92 in - SSW 11.5 mph - N/A   Clear
5:00 AM 59.0 °F 48.2 °F 67% 29.95 in - SSW 10.4 mph - N/A   Clear
5:30 AM 57.2 °F 48.2 °F 72% 29.95 in - SSW 11.5 mph - N/A   Clear
6:00 AM 57 °F 48 °F 62% 29.98 in 22 mi SSW 10.4 mph - -   Partly Cloudy
6:00 AM 57.2 °F 48.2 °F 72% 29.98 in 6.2 mi SSW 10.4 mph - N/A   Partly Cloudy
6:30 AM 57.2 °F 48.2 °F 72% 29.98 in - SSW 11.5 mph - N/A   Clear
7:00 AM 58 °F 48 °F 61% 30.01 in - SSW 10.4 mph - -  
7:00 AM 59.0 °F 48.2 °F 67% 30.01 in - SSW 10.4 mph - N/A   Clear
7:30 AM 60.8 °F 48.2 °F 63% 30.01 in - SSW 12.7 mph - N/A   Clear
8:00 AM 62.6 °F 48.2 °F 59% 30.04 in 6.2 mi SSW 13.8 mph - N/A   Partly Cloudy
8:30 AM 64.4 °F 48.2 °F 56% 30.04 in 6.2 mi SSW 16.1 mph - N/A   Partly Cloudy
9:00 AM 66 °F 48 °F 41% 30.06 in 19 mi SSW 13.8 mph - -   Partly Cloudy
9:00 AM 66.2 °F 48.2 °F 52% 30.06 in 6.2 mi SSW 13.8 mph - N/A   Partly Cloudy
9:30 AM 68.0 °F 46.4 °F 46% 30.06 in 6.2 mi SSW 16.1 mph - N/A   Partly Cloudy
10:00 AM 68 °F 47 °F 36% 30.08 in - SSW 15.0 mph - -  
10:00 AM 68.0 °F 48.2 °F 49% 30.06 in 6.2 mi SSW 15.0 mph - N/A   Partly Cloudy
10:30 AM 69.8 °F 48.2 °F 46% 30.06 in 6.2 mi SSW 12.7 mph - N/A   Partly Cloudy
11:00 AM 69.8 °F 50.0 °F 49% 30.06 in 6.2 mi SSW 11.5 mph - N/A   Scattered Clouds
11:30 AM 69.8 °F 48.2 °F 46% 30.06 in 6.2 mi SSW 12.7 mph - N/A   Mostly Cloudy
12:00 PM 70 °F 48 °F 35% 30.06 in 19 mi South 5.8 mph - -   Partly Cloudy
12:00 PM 69.8 °F 48.2 °F 46% 30.06 in 6.2 mi South 5.8 mph - N/A   Mostly Cloudy
12:30 PM 71.6 °F 48.2 °F 43% 30.04 in 6.2 mi South 8.1 mph - N/A   Scattered Clouds
1:00 PM 72 °F 49 °F 32% 30.05 in - SSW 10.4 mph - -  
1:00 PM 71.6 °F 48.2 °F 43% 30.04 in 6.2 mi SSW 10.4 mph - N/A   Mostly Cloudy
1:30 PM 71.6 °F 48.2 °F 43% 30.04 in 6.2 mi SSE 10.4 mph - N/A   Mostly Cloudy
2:00 PM 71.6 °F 48.2 °F 43% 30.04 in 6.2 mi South 12.7 mph 26.5 mph N/A   Scattered Clouds
2:30 PM 73.4 °F 48.2 °F 41% 30.04 in 6.2 mi SW 13.8 mph - N/A   Mostly Cloudy
3:00 PM 71 °F 48 °F 33% 30.06 in 19 mi SSW 12.7 mph - -   Partly Cloudy
3:00 PM 71.6 °F 48.2 °F 43% 30.04 in 6.2 mi SSW 12.7 mph - N/A   Mostly Cloudy
3:30 PM 69.8 °F 48.2 °F 46% 30.06 in 6.2 mi SSW 12.7 mph - N/A   Mostly Cloudy
4:00 PM 70 °F 49 °F 36% 30.09 in - SSE 6.9 mph - -  
4:00 PM 69.8 °F 50.0 °F 49% 30.06 in - SSE 6.9 mph - N/A   Clear
4:30 PM 68.0 °F 50.0 °F 52% 30.09 in - SSE 8.1 mph - N/A   Clear
5:00 PM 68.0 °F 50.0 °F 52% 30.09 in - South 8.1 mph - N/A   Clear
5:30 PM 66.2 °F 50.0 °F 56% 30.09 in - SSW 9.2 mph - N/A   Clear
6:00 PM 64 °F 50 °F 49% 30.12 in 19 mi SSW 8.1 mph - -   Partly Cloudy
6:00 PM 64.4 °F 50.0 °F 59% 30.12 in - SSW 8.1 mph - N/A   Clear
6:30 PM 64.4 °F 48.2 °F 56% 30.12 in - SSW 10.4 mph - N/A   Clear
7:00 PM 65 °F 48 °F 43% 30.15 in - SSW 10.4 mph - -  
7:00 PM 64.4 °F 48.2 °F 56% 30.12 in - SSW 10.4 mph - N/A   Clear
7:30 PM 62.6 °F 48.2 °F 59% 30.15 in - SSW 10.4 mph - N/A   Clear
8:00 PM 59.0 °F 48.2 °F 67% 30.15 in - SSW 10.4 mph - N/A   Clear
8:30 PM 57.2 °F 48.2 °F 72% 30.18 in - SSW 10.4 mph - N/A   Clear
9:00 PM 58 °F 47 °F 58% 30.19 in 19 mi SSW 8.1 mph - -   Partly Cloudy
9:00 PM 59.0 °F 48.2 °F 67% 30.18 in - SSW 8.1 mph - N/A   Clear
9:30 PM 57.2 °F 46.4 °F 67% 30.18 in - SSW 8.1 mph - N/A   Clear
10:00 PM 57 °F 46 °F 57% 30.20 in - SSW 8.1 mph - -  
10:00 PM 57.2 °F 46.4 °F 67% 30.18 in - SSW 8.1 mph - N/A   Clear
10:30 PM 57.2 °F 46.4 °F 67% 30.18 in - SSW 5.8 mph - N/A   Clear
11:00 PM 55.4 °F 46.4 °F 72% 30.18 in - SSW 8.1 mph - N/A   Clear
11:30 PM 55.4 °F 44.6 °F 67% 30.18 in - SSW 8.1 mph - N/A   Clear